| time (UTC) | temp F | wind direction | speed MPH | gust MPH | rain 1hr in | rain 24hr in | rain mn in | humidity % | barometer mb |
| 20260506190057 | 54 | 360 | 4.0 | 8.0 | 0.00 | 0.00 | 0.00 | 94 | 1022.3 |
| 20260506184518 | 54 | 360 | 2.0 | 6.0 | 0.00 | 0.00 | 0.00 | 94 | 1022.4 |
| 20260506183029 | 54 | 360 | 1.0 | 8.0 | 0.00 | 0.00 | 0.00 | 94 | 1022.2 |
| 20260506181601 | 54 | 360 | 2.0 | 9.0 | 0.00 | 0.00 | 0.00 | 94 | 1022.1 |
| 20260506180008 | 54 | 259 | 2.0 | 6.0 | 0.00 | 0.00 | 0.00 | 94 | 1021.7 |
| 20260506174534 | 54 | 309 | 3.0 | 8.0 | 0.00 | 0.00 | 0.00 | 94 | 1021.6 |
| 20260506173116 | 54 | 296 | 3.0 | 8.0 | 0.00 | 0.00 | 0.00 | 95 | 1021.5 |
| 20260506171537 | 54 | 315 | 0.0 | 4.0 | 0.00 | 0.00 | 0.00 | 95 | 1021.3 |
| 20260506170056 | 54 | 360 | 0.0 | 0.0 | 0.00 | 0.00 | 0.00 | 95 | 1021.4 |
| 20260506164521 | 54 | 360 | 0.0 | 0.0 | 0.00 | 0.00 | 0.00 | 96 | 1021.3 |
| 20260506163052 | 53 | 360 | 0.0 | 1.0 | 0.00 | 0.00 | 0.00 | 96 | 1021.3 |
| 20260506161606 | 53 | 360 | 0.0 | 0.0 | 0.00 | 0.00 | 0.00 | 96 | 1021.2 |
| 20260506160029 | 53 | 360 | 0.0 | 8.0 | 0.00 | 0.00 | 0.00 | 96 | 1021.1 |
| 20260506154545 | 52 | 360 | 0.0 | 0.0 | 0.00 | 0.00 | 0.00 | 96 | 1021.2 |
| 20260506153010 | 53 | 360 | 0.0 | 1.0 | 0.00 | 0.00 | 0.00 | 96 | 1021.3 |
| 20260506151551 | 52 | 360 | 0.0 | 0.0 | 0.00 | 0.00 | 0.00 | 96 | 1021.1 |
| 20260506150108 | 52 | 360 | 0.0 | 0.0 | 0.00 | 0.00 | 0.00 | 96 | 1021.1 |
| 20260506144525 | 52 | 19 | 0.0 | 0.0 | 0.00 | 0.00 | 0.00 | 96 | 1020.9 |
| 20260506143047 | 52 | 360 | 0.0 | 0.0 | 0.00 | 0.00 | 0.00 | 96 | 1020.9 |
| 20260506141503 | 52 | 44 | 0.0 | 0.0 | 0.00 | 0.00 | 0.00 | 96 | 1020.6 |
| 20260506140035 | 52 | 360 | 0.0 | 0.0 | 0.00 | 0.00 | 0.00 | 96 | 1020.5 |
| 20260506134558 | 52 | 360 | 0.0 | 0.0 | 0.00 | 0.00 | 0.00 | 95 | 1020.3 |
| 20260506133023 | 52 | 45 | 0.0 | 0.0 | 0.00 | 0.00 | 0.00 | 95 | 1020.2 |
| 20260506131546 | 52 | 50 | 0.0 | 0.0 | 0.00 | 0.00 | 0.00 | 95 | 1020.1 |
| 20260506130010 | 52 | 60 | 0.0 | 0.0 | 0.00 | 0.00 | 0.00 | 95 | 1020.1 |
| 20260506124538 | 52 | 61 | 0.0 | 0.0 | 0.00 | 0.00 | 0.00 | 95 | 1020.2 |
| 20260506123001 | 52 | 360 | 0.0 | 0.0 | 0.00 | 0.00 | 0.00 | 95 | 1019.9 |
| 20260506121528 | 52 | 360 | 0.0 | 0.0 | 0.00 | 0.00 | 0.00 | 94 | 1020.0 |
| 20260506120100 | 52 | 360 | 0.0 | 0.0 | 0.00 | 0.00 | 0.00 | 94 | 1020.1 |
| 20260506114523 | 52 | 360 | 0.0 | 0.0 | 0.00 | 0.00 | 0.00 | 94 | 1019.9 |
| 20260506113047 | 52 | 360 | 0.0 | 0.0 | 0.00 | 0.00 | 0.00 | 94 | 1019.8 |
| 20260506111510 | 52 | 360 | 0.0 | 0.0 | 0.00 | 0.00 | 0.00 | 94 | 1019.7 |
| 20260506110046 | 52 | 360 | 0.0 | 0.0 | 0.00 | 0.00 | 0.00 | 94 | 1019.4 |
| 20260506104501 | 52 | 360 | 0.0 | 0.0 | 0.00 | 0.00 | 0.00 | 93 | 1019.2 |
| 20260506103030 | 52 | 360 | 0.0 | 0.0 | 0.00 | 0.00 | 0.00 | 93 | 1019.2 |
| 20260506101605 | 52 | 360 | 0.0 | 0.0 | 0.00 | 0.00 | 0.00 | 93 | 1019.0 |
| 20260506100022 | 53 | 360 | 0.0 | 0.0 | 0.00 | 0.00 | 0.00 | 93 | 1018.9 |
| 20260506094557 | 53 | 360 | 0.0 | 0.0 | 0.00 | 0.00 | 0.00 | 93 | 1019.0 |
| 20260506093014 | 53 | 360 | 0.0 | 0.0 | 0.00 | 0.00 | 0.00 | 93 | 1018.9 |
| 20260506091540 | 53 | 360 | 0.0 | 0.0 | 0.00 | 0.00 | 0.00 | 93 | 1018.8 |
| 20260506090007 | 53 | 360 | 0.0 | 0.0 | 0.00 | 0.00 | 0.00 | 92 | 1018.8 |
| 20260506084532 | 53 | 360 | 0.0 | 0.0 | 0.00 | 0.00 | 0.00 | 92 | 1018.5 |
| 20260506083101 | 53 | 360 | 0.0 | 0.0 | 0.00 | 0.00 | 0.00 | 92 | 1018.6 |
| 20260506081523 | 53 | 360 | 0.0 | 0.0 | 0.00 | 0.00 | 0.00 | 92 | 1018.5 |
| 20260506073026 | 53 | 360 | 0.0 | 0.0 | 0.00 | 0.00 | 0.00 | 91 | 1018.2 |
| 20260506071608 | 53 | 360 | 0.0 | 0.0 | 0.00 | 0.00 | 0.00 | 91 | 1018.2 |
| 20260506061530 | 53 | 360 | 0.0 | 0.0 | 0.00 | 0.00 | 0.00 | 92 | 1018.0 |
| 20260506044559 | 54 | 360 | 0.0 | 0.0 | 0.00 | 0.00 | 0.00 | 91 | 1017.4 |
| 20260506043102 | 54 | 360 | 0.0 | 0.0 | 0.00 | 0.00 | 0.00 | 91 | 1017.4 |
| 20260506041532 | 54 | 360 | 0.0 | 0.0 | 0.00 | 0.00 | 0.00 | 91 | 1017.2 |
| 20260506040053 | 54 | 360 | 0.0 | 0.0 | 0.00 | 0.00 | 0.00 | 91 | 1017.0 |
| 20260506034517 | 54 | 360 | 0.0 | 0.0 | 0.00 | 0.00 | 0.00 | 91 | 1016.9 |
| 20260506033031 | 54 | 360 | 0.0 | 0.0 | 0.00 | 0.00 | 0.00 | 90 | 1016.8 |
| 20260506031605 | 54 | 360 | 0.0 | 5.0 | 0.00 | 0.00 | 0.00 | 90 | 1016.7 |
| 20260506030024 | 54 | 360 | 0.0 | 4.0 | 0.00 | 0.00 | 0.00 | 90 | 1016.4 |
| 20260506024547 | 54 | 360 | 0.0 | 6.0 | 0.00 | 0.00 | 0.00 | 89 | 1016.2 |
| 20260506023006 | 54 | 360 | 3.0 | 6.0 | 0.00 | 0.00 | 0.00 | 89 | 1015.9 |
| 20260506021532 | 55 | 360 | 3.0 | 6.0 | 0.00 | 0.00 | 0.00 | 88 | 1015.8 |
| 20260506020043 | 55 | 325 | 2.0 | 6.0 | 0.00 | 0.00 | 0.00 | 88 | 1015.9 |
| 20260506014558 | 55 | 360 | 1.0 | 8.0 | 0.00 | 0.00 | 0.00 | 88 | 1015.9 |
| 20260506013026 | 56 | 360 | 2.0 | 8.0 | 0.00 | 0.00 | 0.00 | 87 | 1015.9 |
| 20260506011533 | 56 | 360 | 0.0 | 5.0 | 0.00 | 0.00 | 0.00 | 88 | 1015.7 |
| 20260506004534 | 56 | 360 | 3.0 | 6.0 | 0.00 | 0.00 | 0.00 | 88 | 1015.7 |
| 20260506003050 | 56 | 360 | 4.0 | 9.0 | 0.00 | 0.00 | 0.00 | 87 | 1015.9 |
| 20260506001514 | 56 | 360 | 6.0 | 10.0 | 0.00 | 0.00 | 0.00 | 86 | 1015.8 |
| 20260506000046 | 57 | 360 | 3.0 | 10.0 | 0.00 | 0.00 | 0.00 | 86 | 1015.7 |
| 20260505234510 | 57 | 360 | 5.0 | 10.0 | 0.00 | 0.00 | 0.00 | 86 | 1015.8 |
| 20260505233031 | 57 | 360 | 4.0 | 11.0 | 0.00 | 0.00 | 0.00 | 85 | 1015.9 |
| 20260505231559 | 58 | 360 | 4.0 | 9.0 | 0.00 | 0.00 | 0.00 | 85 | 1016.0 |
| 20260505230026 | 59 | 312 | 3.0 | 10.0 | 0.00 | 0.00 | 0.00 | 84 | 1016.1 |
| 20260505224551 | 60 | 360 | 3.0 | 10.0 | 0.00 | 0.00 | 0.00 | 84 | 1016.2 |
| 20260505223018 | 60 | 360 | 2.0 | 10.0 | 0.00 | 0.00 | 0.00 | 85 | 1016.3 |
| 20260505221549 | 59 | 279 | 4.0 | 9.0 | 0.00 | 0.00 | 0.00 | 85 | 1016.3 |
| 20260505220020 | 58 | 297 | 3.0 | 12.0 | 0.00 | 0.00 | 0.00 | 85 | 1016.5 |
| 20260505214554 | 60 | 360 | 4.0 | 11.0 | 0.00 | 0.00 | 0.00 | 83 | 1016.4 |
| 20260505213106 | 60 | 279 | 1.0 | 12.0 | 0.00 | 0.00 | 0.00 | 84 | 1016.5 |
| 20260505211528 | 60 | 308 | 1.0 | 10.0 | 0.00 | 0.00 | 0.00 | 85 | 1016.5 |
| 20260505210040 | 60 | 269 | 5.0 | 11.0 | 0.00 | 0.00 | 0.00 | 83 | 1016.4 |
| 20260505204507 | 61 | 360 | 1.0 | 10.0 | 0.00 | 0.00 | 0.00 | 85 | 1016.3 |
| 20260505203029 | 60 | 360 | 4.0 | 10.0 | 0.00 | 0.00 | 0.00 | 84 | 1016.4 |
| 20260505201606 | 60 | 360 | 3.0 | 9.0 | 0.00 | 0.00 | 0.00 | 86 | 1016.4 |
| 20260505200019 | 59 | 360 | 4.0 | 9.0 | 0.00 | 0.00 | 0.00 | 86 | 1016.4 |
| 20260505194547 | 59 | 296 | 3.0 | 9.0 | 0.00 | 0.00 | 0.00 | 85 | 1016.3 |
| 20260505193032 | 60 | 360 | 4.0 | 8.0 | 0.00 | 0.00 | 0.00 | 86 | 1016.2 |
| 20260505191549 | 60 | 360 | 1.0 | 8.0 | 0.00 | 0.00 | 0.00 | 87 | 1016.2 |